weather.gov     
National Weather Service

Terminal Aerodrome Forecast
NWS Homepage
This page is being discontinued on March 12, 2014.
The same data is available at this site. Please update your bookmarks.
Thank you, and we apologize for the inconvenience.
Please send an email to SR-SRH.Webmaster@noaa.gov with any concerns.


Current Version
Previous Version:    01  02  03  04  05  06  07  08  09  10  11  12  13  14  
[Printable]
145
FTUS41 KGYX 011742
TAFMHT
TAF
KMHT 011742Z 0118/0218 33009KT P6SM SCT150
     FM020300 35005KT P6SM OVC050
     FM020700 02008KT 3SM -SN OVC015
     FM021200 03012KT 3/4SM -SN BR OVC007=


145
FTUS41 KGYX 011742
TAFMHT
TAF
KMHT 011742Z 0118/0218 33009KT P6SM SCT150
     FM020300 35005KT P6SM OVC050
     FM020700 02008KT 3SM -SN OVC015
     FM021200 03012KT 3/4SM -SN BR OVC007=




U.S. Dept. of Commerce
NOAA National Weather Service
1325 East West Highway
Silver Spring, MD 20910
E-mail: w-nws.webmaster@noaa.gov
Page last modified: May 16, 2007
NATIONAL WEATHER SERVICE: for Safety, for Work, for Fun - FOR LIFE